Tracking 30101 objects as of 13-Dec-2024
HD Live streaming from Space Station
objects crossing your sky now

STARLINK-31266

Track STARLINK-31266 now!
10-day predictions
STARLINK-31266 is classified as:


NORAD ID: 59087
Int'l Code: 2024-041P
Perigee: 494.7 km
Apogee: 495.7 km
Inclination: 43.0 °
Period: 94.4 minutes
Semi major axis: 6866 km
RCS: Unknown
Launch date: February 29, 2024
Source: United States (US)
Launch site: AIR FORCE EASTERN TEST RANGE (AFETR)
Your satellite tracking list
Your tracking list is empty




NASA's NSSDC Master Catalog

Two Line Element Set (TLE):
1 59087U 24041P   24348.02837766  .00002276  00000-0  96872-4 0  9993
2 59087  43.0007 339.0353 0000727 257.5256 102.5514 15.25895720 45280
Source of the keplerian elements: AFSPC